Regional Weather Roundup
Issued by NWS Wakefield, VA

Home | Current Version | Previous Version | Graphics & Text | Print | Product List | Glossary On
Versions: 1 2 3 4 5 6 7 8 9 10 11 12 13 14 15 16 17 18 19 20 21 22 23 24 25 26 27 28 29 30 31 32 33 34 35 36 37 38 39 40 41 42 43 44 45 46 47 48 49 50
000
ASUS41 KAKQ 260615
RWRAKQ

REGIONAL WEATHER ROUNDUP
NATIONAL WEATHER SERVICE WAKEFIELD VA
200 AM EDT TUE SEP 26 2017

Note: "fair" indicates few or no clouds below 12,000 feet with no
significant weather and/or obstructions to visibility. * = Denotes
station may not report precipitation (e.g., rain,snow,etc.),
thunder or fog.

VAZ042-051-052>054-056-260700-
NORTHERN VIRGINIA

CITY           SKY/WX    TMP DP  RH WIND       PRES   REMARKS
WASH NATIONAL  MOCLDY    73  66  78 E7        30.01S
DULLES         PTCLDY    70  66  87 NE5       30.01S
FORT BELVOIR   PTCLDY    68  64  88 CALM      30.00S
QUANTICO       CLOUDY    75  68  78 NE8       29.99F
FREDERICKSBRG* MOCLDY    72  68  87 N3        29.98S
STAFFORD*      PTCLDY    70  67  90 CALM      30.03S
WARRENTON      CLOUDY    68  65  88 N3        30.00S
CULPEPER*      CLEAR     67  67  99 N5        30.01S FOG
MANASSAS*      PTCLDY    70  66  87 NE5       30.01S
LEESBURG*      PTCLDY    72  70  94 CALM      30.03S
WINCHESTER     PTCLDY    63  63 100 CALM      30.02S FOG
FRONT ROYAL*   PTCLDY    64  64 100 CALM      30.01S
LURAY*         PTCLDY    64  64 100 CALM      30.02S
$$

VAZ048-049-060>072-079>083-260700-
CENTRAL AND SOUTH CENTRAL VIRGINIA

CITY           SKY/WX    TMP DP  RH WIND       PRES   REMARKS
RICHMOND       CLOUDY    70  68  93 NE6       29.96S
CHESTERFIELD*  NOT AVBL
PETERSBURG*    CLOUDY    70  70 100 NE7       29.96S
HANOVER        MOCLDY    69  68  96 NE3       29.99R
TAPPAHANNOCK*  CLOUDY   N/A N/A N/A N3        29.98S
QUINTON*       CLOUDY    70  70 100 N5        29.95S
CHARLOTTSVILLE MOCLDY    71  67  87 N3        30.00S
GORDONSVILLE*  MOCLDY    66  66 100 CALM      29.99F
ORANGE*        PTCLDY    64  64 100 CALM      30.00S FOG
LOUISA*        CLOUDY    70  66  88 NE5       29.99S
BUMPASS*       FAIR      68  68 100 CALM      29.99S
FARMVILLE*     MOCLDY    69  69 100 N3        29.96F
CREWE*         FAIR      67  67 100 CALM      29.96S
FORT PICKETT*  MOCLDY    68  68 100 NE5       29.97R
CHASE CITY*    FAIR      69  69 100 NE3       29.96S
CLARKSVILLE*   FAIR      68  68 100 CALM      29.95S
SOUTH HILL*    CLOUDY    68  68  99 N5        30.01S
LAWRENCEVILLE* CLOUDY    69  67  94 NE3       29.95S
EMPORIA*       CLOUDY    68  66  94 NW6       29.95S
$$

VAZ088>098-260700-
SOUTHEAST VIRGINIA

CITY           SKY/WX    TMP DP  RH WIND       PRES   REMARKS
NORFOLK        CLOUDY    73  71  93 NE14      29.91S
VIRGINIA BEACH CLOUDY    71  69  93 NE14      29.89S
NORFOLK NAVAL  CLOUDY    74  70  87 NE14G22   29.93S
WEST POINT*    CLOUDY    70  66  88 NE3       29.96F
SALUDA*        CLOUDY    71  69  95 NE3       29.95F
NEWPORT NEWS   CLOUDY    72  68  87 NE9       29.93S
LANGLEY AFB    CLOUDY    72  70  92 NE12      29.92F
FORT EUSTIS    CLOUDY    72  68  87 N7        29.91S
WILLIAMSBURG*  CLEAR     73  70  88 NE3       29.95S
HR EXEC AP*    CLOUDY    71  70  96 NE7       29.92S
FRANKLIN*      CLOUDY    70  68  92 N7        29.93S
US460-WAKEFLD  CLOUDY    71  69  93 VRB3      29.93S
$$

VAZ020-022-025-037-045-260700-
WEST CENTRAL AND SOUTHWEST VIRGINIA

CITY           SKY/WX    TMP DP  RH WIND       PRES   REMARKS
STAUNTON*      MOCLDY    65  63  93 CALM      30.05S
WAYNESBORO*    CLOUDY    70  66  88 NW6       30.05R
HOT SPRINGS VA CLOUDY    65  63  91 E10       30.15S
LYNCHBURG      PTCLDY    69  65  86 N6        30.01S
DANVILLE       MOCLDY    66  65  96 N3        29.97F
SOUTH BOSTON*  FAIR      68  66  95 N5        29.96F
MARTINSVILLE   CLOUDY    62  61  96 CALM      30.02F
ROANOKE        PTCLDY    68  64  87 CALM      30.05S
BLACKSBURG     PTCLDY    62  62  99 CALM      30.10S FOG
DUBLIN*        PTCLDY    62  62  98 CALM      30.09S
MARION*        MOCLDY    59  56  90 CALM      30.12S
HILLSVILLE*    CLEAR     63  59  87 CALM      30.08S
RICHLANDS*     FAIR      67  59  75 E5        30.09F
WISE*          PTCLDY    64  55  72 CALM      30.10S
ABINGDON*      CLEAR     63  61  93 CALM      30.06S
$$

MDZ021>025-VAZ099-100-260700-
SOUTHERN MARYLAND AND THE DELMARVA PENINSULA

CITY           SKY/WX    TMP DP  RH WIND       PRES   REMARKS
PATUXENT RIVER CLOUDY    69  68  96 NE8       29.98S
BAY BRIDGE APT PTCLDY    68  66  94 CALM      30.01F
LEONARDTOWN    PTCLDY    68  64  88 CALM      30.00S
DOVER          CLOUDY    70  68  94 E7        30.00S
GEORGETOWN     CLOUDY    69  67  93 NE7       30.00F FOG
EASTON         MOCLDY    69  66  91 E6        30.04F
CAMBRIDGE      FOG       68  66  94 NE5       30.00S VSB 1/2
SALISBURY      CLOUDY    68  68 100 NE9       29.97F
OCEAN CITY     CLOUDY    68  68 100 NE8       29.97F
WALLOPS ISLAND CLOUDY    69  69 100 NE15      29.95F
ACCOMACK*      CLOUDY    70  68  95 NE9       29.94F
$$

NCZ012>017-030>032-260700-
NORTH CENTRAL AND EASTERN NORTH CAROLINA

CITY           SKY/WX    TMP DP  RH WIND       PRES   REMARKS
ROANOKE RAPIDS CLOUDY    70  68  94 N6        29.93S
RALEIGH        MOCLDY    70  67  90 NE6       29.93F
ELIZABETH CITY CLOUDY    72  72 100 NE15      29.87F FOG
AHOSKIE*       RAIN      70  69  96 N8        29.91F
EDENTON*       CLOUDY    73  71  94 N5        29.88S FOG
CURRITUCK*     CLOUDY    72  71  97 N14G20    29.89S FOG
KILL DEVIL HLS CLOUDY    71  71 100 NE12G20   29.83S FOG
MANTEO         CLOUDY    73  72  98 NE17G24   29.83S
CAPE HATTERAS  CLOUDY    77  76  96 NE13G23   29.75F
TARBORO*       NOT AVBL
GOLDSBORO      CLOUDY    71  71 100 N8        29.86F
WASHINGTON     CLOUDY    71  69  92 N10       29.87F
GREENVILLE     CLOUDY    72  68  88 N9        29.91R
NEW BERN       CLOUDY    73  71  93 N12       29.83F
WILMINGTON     CLOUDY    74  70  87 N13G21    29.82S
$$

VAZ048-260700-
ELSEWHERE

CITY           SKY/WX    TMP DP  RH WIND       PRES   REMARKS
HARRISBURG PA  PTCLDY    72  69  90 SE6       30.03R
BALTIMORE      MOCLDY    71  66  84 NE5       30.01F
ANNAPOLIS      PTCLDY    73  70  90 E5        30.00F
ANDREWS AFB    PTCLDY    67  63  86 NE7       30.00F
PHILADELPHIA   MOCLDY    68  65  90 SE7       30.04S
HENDERSON NC   MOCLDY    66  64  91 NE5       29.95S
GREENSBORO     PTCLDY    69  65  86 N6        29.97S
ROCKY MOUNT    CLOUDY    71  68  90 N12       29.90F
$$

VAZ100-260700-
MARINE

STATION/POSITION TIME  TEMP    WIND        PRES    WAVE   SWELL
                       AIR SEA DIR/SP/G            HT/PER HT/PER
                 (UTC) (F)     (DEG/KT/KT) (MB)    (FT/S) (FT/S)
BRANDYWINE LGT   0530   69      80/  8/  9 1016.8R
CAPE MAY NJ      0530   67 75   60/  3/  4 1015.8R
LEWES DE         0530   68 74   90/  7/  9 1015.7F
15NM E FENWICK I 0550   68 71   40/ 12/ 16 1015.3F   4/13   3/13
OCEAN-CITY-INLET 0530   68 74   80/  7/ 10 1015.7F
WACHAPREAGUE VA  0524   71 76   50/ 15/ 19 1013.9
THOMAS POINT MD  0600   69 77   40/  9/ 10   N/A
GOOSES REEF MD   0600   71 76   40/  8/ 10 1016.0    0
COVE POINT MD    0524   69      60/  7/ 10 1016.4
SOLOMONS ISLAND  0524   70 78   30/  5/  7 1015.2
BISHOPS HEAD MD  0530   70 78   50/  9/ 12 1015.4S
PINEY POINT MD   0524           70/  4/  6   N/A
POTOMAC MD       0600   72 77   70/ 12/ 14 1014.0    1/ 2
CAMBRIDGE MD     0530   69 79              1016.6S
LEWISETTA VA     0524   72 78   90/ 11/ 13 1015.0
RAPPAHANNOCK LGT 0524           50/ 14/ 17 1014.7
STINGRAY PT      0600   72 76   80/ 14/ 17 1014.3    2/ 3
YORK RVR RNG VA  0524   72      50/ 17/ 19 1014.1
YORKTOWN VA      0524   72 78   40/ 12/ 15 1013.4
JAMESTOWN VA     0600      79   60/  8/ 10   N/A     0
DOMINION TERM VA 0524   72      50/  5/ 10 1013.4
KIPTOPEKE VA     0524      76   60/  9/ 12   N/A
CHES BAY BRIDGE  0524   72 76   40/ 20/ 25 1012.3F
CAPE HENRY VA    0524   72      30/ 22/ 26   N/A
WILLOUBY STN VA  0524   72      20/ 18/ 19 1013.1F
S CRANEY ISL VA  0524   72      40/ 13/ 17 1012.8
CAPE HENRY BUOY  0530      74                N/A     6/15   3/15
1ST LANDING BUOY 0600   73 75              1012.4    4/ 4
64NM E OF VA BCH 0550   71 70   40/ 17/ 21 1011.1F  18/15  16/15
DUCK PIER NC     0524   72 76   30/ 24/ 27 1010.3
44100 DUCK FRF   0535      74                N/A     9/15   5/15
44056 DUCK FRF   0530      76                N/A     9/13   7/13
OREGON INLET NC  0524   74 75   30/ 20/ 24 1009.2F
HATTERAS NC      0524   76 77   30/ 16/ 23 1007.5
DIAMOND SHLS NC  0550   77 77   20/ 23/ 31 1005.3F  17/13  16/13
CAPE LOOKOUT NC  0600   74     360/ 22/ 26 1007.2F
$$



USA.gov is the U.S. government's official web portal to all federal, state and local government web resources and services.